Hourly Data Report for June 16, 2021

SANIRAJAK AIRPORT
NUNAVUT
Current Station Operator: NAVCAN

68°46'33.000" N
81°14'33.000" W
9.10 m
2402354
71293
YUX

Download Data

Hourly Data (June 2021)
Hourly Data Report for June 16, 2021
TIME
LST
Temp Definition
°C
Dew Point Definition
°C
Rel Hum Definition
%
Precip. Amount Definition
mm

Wind Dir Definition
10's deg

Wind Spd Definition
km/h
Visibility Definition
km
Stn Press Definition
kPa
Hmdx Definition


Wind Chill Definition


Weather Definition


00:00 0.8 0.7 99 0.0 26 18 16.1 101.00     LegendNANA
01:00 1.0 0.9 99 0.0 27 21 16.1 101.00     LegendNANA
02:00 0.7 0.6 99 0.0 27 18 16.1 100.99     LegendNANA
03:00 0.9 0.8 99 0.0 29 18 16.1 100.98     LegendNANA
04:00 0.8 0.7 99 0.0 30 17 16.1 100.96     LegendNANA
05:00 0.8 0.7 99 0.0 32 18 9.7 100.94     Fog
06:00 0.5 0.4 99 0.0 33 18 16.1 100.95     LegendNANA
07:00 0.6 0.5 99 0.0 33 17 16.1 100.92     LegendNANA
08:00 1.0 0.6 97 0.0 31 17 16.1 100.91     LegendNANA
09:00 1.0 0.3 95 0.0 35 21 16.1 100.89     LegendNANA
10:00 1.0 0.1 94 0.0 34 18 16.1 100.88     LegendNANA
11:00 0.8 0.2 96 0.0 33 21 16.1 100.86     LegendNANA
12:00 1.2 0.6 96 0.0 35 18 16.1 100.83     LegendNANA
13:00 1.4 0.8 96 0.0 36 18 8.1 100.81     Fog
14:00 1.6 0.4 92 0.0 36 18 16.1 100.85     LegendNANA
15:00 1.7 0.4 91 0.0 36 18 16.1 100.82     LegendNANA
16:00 1.2 0.2 93 0.0 36 22 16.1 100.80     LegendNANA
17:00 0.9 0.3 96 0.0 35 15 16.1 100.78     LegendNANA
18:00 0.8 0.4 97 0.0 35 15 16.1 100.74     LegendNANA
19:00 0.5 0.2 98 0.0 1 13 0.8 100.73     Fog
20:00 -0.6 -0.7 99 0.0 2 11 0.6 100.66   -4 Freezing Fog
21:00 -0.3 -0.3 100 0.0 34 4 16.1 100.60   -2 LegendNANA
22:00 0.7 0.6 99 0.0 29 13 16.1 100.55     LegendNANA
23:00 0.9 0.5 97 0.0 29 17 16.1 100.50     LegendNANA

Notes on Data Quality.

Legend

  • E = Estimated
  • M = Missing
  • NA = Not Available*
  • [empty] = Indicates an unobserved value
Date modified: